Location: Newark
(42.8481°N, 0.4872°E)
Time: 07:51:05
(UTC+00:00)

Vanguard 3 - Pass Details

Date: 04 November 2020
Orbit: 508 x 3262 km, 33.3° (Epoch: 28 November)

Event Time Altitude Azimuth Distance (km) Brightness Sun altitude
Rises 04:48:35 0° 248° (WSW) 5,598 - -20.1°
Reaches altitude 10° 04:51:48 10° 245° (WSW) 4,902 - -19.5°
Exits shadow 04:53:30 16° 243° (WSW) 4,565 10.4 -19.2°
Maximum altitude 05:06:53 61° 170° (S) 3,338 10.2 -16.8°
Drops below altitude 10° 05:26:19 10° 97° (E) 6,129 13.1 -13.2°
Sets 05:30:55 0° 95° (E) 7,016 14.0 -12.4°
